Voltar ao catálogo

STARLINK-35369

AtivoComunicaçõesVLEO
NORAD 68705·PAYLOAD·🇺🇸 United States

Lançado Apr 14, 2026 de Cape Canaveral Space Force Station

Loading…

Próximas Passagens (próximas 24 horas)

TLE

AtualizadoSource: CelesTrak SupGP

Época: Sep 15, 2026, 03:55 UTC

1 68705C 26081G   26258.16368056 -.00043742  00000+0 -12923-2 0  2589
2 68705  53.1572 230.8744 0001301  85.0024  12.5544 15.34413063    15

Acompanhe STARLINK-35369 em tempo real com AllMySat

Download on the App Store